Time,TemperatureF,DewpointF,PressureIn,WindDirection,WindDirectionDegrees,WindSpeedMPH,WindSpeedGustMPH,Humidity,HourlyPrecipIn,Conditions,Clouds,dailyrainin,SoftwareType,DateUTC
2013-01-21 00:03:00,28.0,7.0,-100.00,WSW,247,31.0,40.0,42,0.00,,,-99.99,,2013-01-21 07:03:00,
2013-01-21 00:12:00,27.0,8.0,-100.00,WSW,247,30.0,40.0,43,0.00,,,-99.99,,2013-01-21 07:12:00,
2013-01-21 00:22:00,28.0,8.0,-100.00,WSW,250,30.0,41.0,42,0.00,,,-99.99,,2013-01-21 07:22:00,
2013-01-21 00:33:00,28.0,8.0,-100.00,WSW,254,28.0,41.0,42,0.00,,,-99.99,,2013-01-21 07:33:00,
2013-01-21 00:42:00,28.0,8.0,-100.00,WSW,250,28.0,37.0,42,0.00,,,-99.99,,2013-01-21 07:42:00,
2013-01-21 00:52:00,27.0,8.0,-100.00,WSW,248,28.0,39.0,44,0.00,,,-99.99,,2013-01-21 07:52:00,
2013-01-21 01:03:00,27.0,8.0,-100.00,WSW,256,22.0,31.0,45,0.00,,,-99.99,,2013-01-21 08:03:00,
2013-01-21 01:13:00,27.0,8.0,-100.00,WSW,253,23.0,32.0,45,0.00,,,-99.99,,2013-01-21 08:13:00,
2013-01-21 01:22:00,27.0,8.0,-100.00,WSW,258,22.0,30.0,44,0.00,,,-99.99,,2013-01-21 08:22:00,
2013-01-21 01:33:00,27.0,8.0,-100.00,West,265,23.0,35.0,43,0.00,,,-99.99,,2013-01-21 08:33:00,
2013-01-21 01:42:00,27.0,8.0,-100.00,West,261,28.0,39.0,43,0.00,,,-99.99,,2013-01-21 08:42:00,
2013-01-21 01:53:00,27.0,8.0,-100.00,WSW,257,27.0,37.0,44,0.00,,,-99.99,,2013-01-21 08:53:00,
2013-01-21 02:02:00,27.0,8.0,-100.00,West,264,27.0,36.0,44,0.00,,,-99.99,,2013-01-21 09:02:00,
2013-01-21 02:12:00,27.0,8.0,-100.00,West,268,26.0,36.0,44,0.00,,,-99.99,,2013-01-21 09:12:00,
2013-01-21 02:22:00,27.0,8.0,-100.00,West,268,29.0,41.0,44,0.00,,,-99.99,,2013-01-21 09:22:00,
2013-01-21 02:33:00,28.0,8.0,-100.00,West,264,27.0,37.0,43,0.00,,,-99.99,,2013-01-21 09:33:00,
2013-01-21 02:42:00,28.0,8.0,-100.00,West,260,27.0,37.0,42,0.00,,,-99.99,,2013-01-21 09:42:00,
2013-01-21 02:52:00,29.0,8.0,-100.00,West,263,26.0,37.0,41,0.00,,,-99.99,,2013-01-21 09:52:00,
2013-01-21 03:02:00,28.0,8.0,-100.00,West,263,27.0,38.0,43,0.00,,,-99.99,,2013-01-21 10:02:00,
2013-01-21 03:12:00,28.0,8.0,-100.00,WSW,258,26.0,36.0,44,0.00,,,-99.99,,2013-01-21 10:12:00,
2013-01-21 03:22:00,28.0,8.0,-100.00,West,260,29.0,39.0,43,0.00,,,-99.99,,2013-01-21 10:22:00,
2013-01-21 03:32:00,27.0,8.0,-100.00,WSW,256,28.0,35.0,44,0.00,,,-99.99,,2013-01-21 10:32:00,
2013-01-21 03:52:00,27.0,8.0,-100.00,WSW,253,28.0,40.0,45,0.00,,,-99.99,,2013-01-21 10:52:00,
2013-01-21 04:02:00,27.0,8.0,-100.00,WSW,254,29.0,38.0,45,0.00,,,-99.99,,2013-01-21 11:02:00,
2013-01-21 04:13:00,27.0,8.0,-100.00,WSW,256,29.0,38.0,45,0.00,,,-99.99,,2013-01-21 11:13:00,
2013-01-21 04:23:00,26.0,8.0,-100.00,WSW,253,31.0,46.0,45,0.00,,,-99.99,,2013-01-21 11:23:00,
2013-01-21 04:33:00,26.0,8.0,-100.00,WSW,253,31.0,42.0,45,0.00,,,-99.99,,2013-01-21 11:33:00,
2013-01-21 04:42:00,26.0,8.0,-100.00,WSW,251,32.0,47.0,45,0.00,,,-99.99,,2013-01-21 11:42:00,
2013-01-21 04:53:00,27.0,8.0,-100.00,WSW,251,31.0,44.0,45,0.00,,,-99.99,,2013-01-21 11:53:00,
2013-01-21 05:02:00,27.0,8.0,-100.00,WSW,250,32.0,42.0,44,0.00,,,-99.99,,2013-01-21 12:02:00,
2013-01-21 05:12:00,27.0,8.0,-100.00,WSW,251,31.0,41.0,44,0.00,,,-99.99,,2013-01-21 12:12:00,
2013-01-21 05:22:00,27.0,8.0,-100.00,WSW,250,30.0,40.0,44,0.00,,,-99.99,,2013-01-21 12:22:00,
2013-01-21 05:32:00,27.0,8.0,-100.00,WSW,253,30.0,39.0,44,0.00,,,-99.99,,2013-01-21 12:32:00,
2013-01-21 05:42:00,27.0,8.0,-100.00,WSW,250,30.0,41.0,43,0.00,,,-99.99,,2013-01-21 12:42:00,
2013-01-21 05:52:00,27.0,7.0,-100.00,WSW,251,29.0,39.0,42,0.00,,,-99.99,,2013-01-21 12:52:00,
2013-01-21 06:02:00,27.0,7.0,-100.00,WSW,251,31.0,40.0,42,0.00,,,-99.99,,2013-01-21 13:02:00,
2013-01-21 06:12:00,27.0,7.0,-100.00,WSW,253,29.0,40.0,43,0.00,,,-99.99,,2013-01-21 13:12:00,
2013-01-21 06:23:00,27.0,8.0,-100.00,WSW,253,29.0,42.0,43,0.00,,,-99.99,,2013-01-21 13:23:00,
2013-01-21 06:33:00,27.0,8.0,-100.00,WSW,257,30.0,42.0,44,0.00,,,-99.99,,2013-01-21 13:33:00,
2013-01-21 06:43:00,28.0,8.0,-100.00,WSW,247,34.0,48.0,42,0.00,,,-99.99,,2013-01-21 13:43:00,
2013-01-21 06:53:00,27.0,8.0,-100.00,WSW,248,35.0,49.0,44,0.00,,,-99.99,,2013-01-21 13:53:00,
2013-01-21 07:03:00,28.0,9.0,-100.00,WSW,248,35.0,51.0,44,0.00,,,-99.99,,2013-01-21 14:03:00,
2013-01-21 07:12:00,27.0,9.0,-100.00,WSW,248,36.0,51.0,44,0.00,,,-99.99,,2013-01-21 14:12:00,
2013-01-21 07:23:00,27.0,8.0,-100.00,WSW,253,29.0,45.0,45,0.00,,,-99.99,,2013-01-21 14:23:00,
2013-01-21 07:32:00,27.0,8.0,-100.00,WSW,253,31.0,43.0,45,0.00,,,-99.99,,2013-01-21 14:32:00,
2013-01-21 07:43:00,27.0,9.0,-100.00,West,261,30.0,43.0,45,0.00,,,-99.99,,2013-01-21 14:43:00,
2013-01-21 07:53:00,27.0,9.0,-100.00,West,272,27.0,39.0,45,0.00,,,-99.99,,2013-01-21 14:53:00,
2013-01-21 08:03:00,27.0,9.0,-100.00,WSW,257,32.0,46.0,46,0.00,,,-99.99,,2013-01-21 15:03:00,
2013-01-21 08:13:00,27.0,9.0,-100.00,WSW,254,31.0,43.0,46,0.00,,,-99.99,,2013-01-21 15:13:00,
2013-01-21 08:23:00,28.0,10.0,-100.00,WSW,250,35.0,47.0,46,0.00,,,-99.99,,2013-01-21 15:23:00,
2013-01-21 08:33:00,28.0,10.0,-100.00,WSW,250,39.0,52.0,46,0.00,,,-99.99,,2013-01-21 15:33:00,
2013-01-21 08:43:00,28.0,10.0,-100.00,WSW,250,39.0,54.0,46,0.00,,,-99.99,,2013-01-21 15:43:00,
2013-01-21 08:52:00,28.0,10.0,-100.00,WSW,253,39.0,52.0,46,0.00,,,-99.99,,2013-01-21 15:52:00,
2013-01-21 09:03:00,29.0,10.0,-100.00,WSW,254,37.0,50.0,46,0.00,,,-99.99,,2013-01-21 16:03:00,
2013-01-21 09:12:00,29.0,10.0,-100.00,WSW,253,35.0,52.0,45,0.00,,,-99.99,,2013-01-21 16:12:00,
2013-01-21 09:23:00,31.0,10.0,-100.00,WSW,257,33.0,45.0,42,0.00,,,-99.99,,2013-01-21 16:23:00,
2013-01-21 09:33:00,31.0,10.0,-100.00,WSW,257,34.0,48.0,42,0.00,,,-99.99,,2013-01-21 16:33:00,
2013-01-21 09:43:00,30.0,10.0,-100.00,WSW,254,39.0,52.0,43,0.00,,,-99.99,,2013-01-21 16:43:00,
2013-01-21 09:53:00,31.0,11.0,-100.00,WSW,251,37.0,47.0,43,0.00,,,-99.99,,2013-01-21 16:53:00,
2013-01-21 10:02:00,31.0,11.0,-100.00,WSW,253,34.0,47.0,43,0.00,,,-99.99,,2013-01-21 17:02:00,
2013-01-21 10:12:00,31.0,11.0,-100.00,WSW,248,35.0,47.0,42,0.00,,,-99.99,,2013-01-21 17:12:00,
2013-01-21 10:22:00,31.0,11.0,-100.00,WSW,253,34.0,51.0,41,0.00,,,-99.99,,2013-01-21 17:22:00,
2013-01-21 10:33:00,32.0,11.0,-100.00,WSW,256,32.0,47.0,41,0.00,,,-99.99,,2013-01-21 17:33:00,
2013-01-21 10:43:00,32.0,10.0,-100.00,WSW,253,32.0,47.0,39,0.00,,,-99.99,,2013-01-21 17:43:00,
2013-01-21 10:52:00,32.0,10.0,-100.00,WSW,248,35.0,47.0,39,0.00,,,-99.99,,2013-01-21 17:52:00,
2013-01-21 11:03:00,33.0,10.0,-100.00,WSW,248,34.0,45.0,38,0.00,,,-99.99,,2013-01-21 18:03:00,
2013-01-21 11:12:00,33.0,9.0,-100.00,WSW,253,34.0,48.0,37,0.00,,,-99.99,,2013-01-21 18:12:00,
2013-01-21 11:22:00,33.0,9.0,-100.00,WSW,248,35.0,49.0,37,0.00,,,-99.99,,2013-01-21 18:22:00,
2013-01-21 11:33:00,33.0,9.0,-100.00,WSW,248,36.0,50.0,37,0.00,,,-99.99,,2013-01-21 18:33:00,
2013-01-21 11:42:00,33.0,9.0,-100.00,WSW,244,35.0,46.0,35,0.00,,,-99.99,,2013-01-21 18:42:00,
2013-01-21 11:52:00,34.0,9.0,-100.00,WSW,244,34.0,47.0,34,0.00,,,-99.99,,2013-01-21 18:52:00,
2013-01-21 12:03:00,34.0,9.0,-100.00,WSW,250,30.0,44.0,34,0.00,,,-99.99,,2013-01-21 19:03:00,
2013-01-21 12:12:00,35.0,8.0,-100.00,WSW,244,34.0,49.0,33,0.00,,,-99.99,,2013-01-21 19:12:00,
2013-01-21 12:22:00,35.0,8.0,-100.00,WSW,244,32.0,43.0,32,0.00,,,-99.99,,2013-01-21 19:22:00,
2013-01-21 12:33:00,36.0,8.0,-100.00,WSW,247,34.0,52.0,32,0.00,,,-99.99,,2013-01-21 19:33:00,
2013-01-21 12:53:00,35.0,8.0,-100.00,WSW,254,34.0,46.0,32,0.00,,,-99.99,,2013-01-21 19:53:00,
2013-01-21 13:03:00,35.0,7.0,-100.00,WSW,253,33.0,47.0,30,0.00,,,-99.99,,2013-01-21 20:03:00,
2013-01-21 13:12:00,35.0,8.0,-100.00,WSW,258,34.0,45.0,31,0.00,,,-99.99,,2013-01-21 20:12:00,
2013-01-21 13:22:00,35.0,8.0,-100.00,West,268,32.0,44.0,31,0.00,,,-99.99,,2013-01-21 20:22:00,
2013-01-21 13:33:00,35.0,7.0,-100.00,WSW,258,32.0,45.0,30,0.00,,,-99.99,,2013-01-21 20:33:00,
2013-01-21 13:43:00,35.0,7.0,-100.00,WSW,251,34.0,49.0,31,0.00,,,-99.99,,2013-01-21 20:43:00,
2013-01-21 13:53:00,35.0,7.0,-100.00,WSW,250,37.0,49.0,31,0.00,,,-99.99,,2013-01-21 20:53:00,
2013-01-21 14:03:00,35.0,7.0,-100.00,WSW,247,37.0,50.0,31,0.00,,,-99.99,,2013-01-21 21:03:00,
2013-01-21 14:12:00,35.0,7.0,-100.00,WSW,247,37.0,50.0,30,0.00,,,-99.99,,2013-01-21 21:12:00,
2013-01-21 14:22:00,35.0,6.0,-100.00,WSW,251,34.0,49.0,29,0.00,,,-99.99,,2013-01-21 21:22:00,
2013-01-21 14:33:00,35.0,7.0,-100.00,WSW,258,30.0,40.0,29,0.00,,,-99.99,,2013-01-21 21:33:00,
2013-01-21 14:43:00,35.0,6.0,-100.00,WSW,257,30.0,44.0,29,0.00,,,-99.99,,2013-01-21 21:43:00,
2013-01-21 14:53:00,35.0,6.0,-100.00,West,270,31.0,41.0,30,0.00,,,-99.99,,2013-01-21 21:53:00,
2013-01-21 15:03:00,35.0,7.0,-100.00,West,272,29.0,43.0,30,0.00,,,-99.99,,2013-01-21 22:03:00,
2013-01-21 15:12:00,35.0,7.0,-100.00,West,275,27.0,37.0,30,0.00,,,-99.99,,2013-01-21 22:12:00,
2013-01-21 15:23:00,35.0,6.0,-100.00,West,268,28.0,39.0,30,0.00,,,-99.99,,2013-01-21 22:23:00,
2013-01-21 15:33:00,35.0,5.0,-100.00,West,268,35.0,47.0,29,0.00,,,-99.99,,2013-01-21 22:33:00,
2013-01-21 15:42:00,35.0,5.0,-100.00,West,268,35.0,45.0,29,0.00,,,-99.99,,2013-01-21 22:42:00,
2013-01-21 15:52:00,35.0,5.0,-100.00,West,271,32.0,46.0,28,0.00,,,-99.99,,2013-01-21 22:52:00,
2013-01-21 16:03:00,35.0,5.0,-100.00,West,270,29.0,42.0,29,0.00,,,-99.99,,2013-01-21 23:03:00,
2013-01-21 16:12:00,35.0,5.0,-100.00,West,268,28.0,42.0,28,0.00,,,-99.99,,2013-01-21 23:12:00,
2013-01-21 16:22:00,34.0,5.0,-100.00,West,261,30.0,42.0,29,0.00,,,-99.99,,2013-01-21 23:22:00,
2013-01-21 16:33:00,34.0,5.0,-100.00,West,260,30.0,45.0,29,0.00,,,-99.99,,2013-01-21 23:33:00,
2013-01-21 16:42:00,34.0,6.0,-100.00,WSW,258,31.0,44.0,31,0.00,,,-99.99,,2013-01-21 23:42:00,
2013-01-21 16:53:00,33.0,5.0,-100.00,West,267,32.0,44.0,30,0.00,,,-99.99,,2013-01-21 23:53:00,
2013-01-21 17:02:00,33.0,5.0,-100.00,West,271,31.0,41.0,30,0.00,,,-99.99,,2013-01-22 00:02:00,
2013-01-21 17:12:00,33.0,6.0,-100.00,West,272,31.0,39.0,31,0.00,,,-99.99,,2013-01-22 00:12:00,
2013-01-21 17:22:00,33.0,6.0,-100.00,West,265,29.0,40.0,31,0.00,,,-99.99,,2013-01-22 00:22:00,
2013-01-21 17:32:00,33.0,5.0,-100.00,West,268,31.0,42.0,30,0.00,,,-99.99,,2013-01-22 00:32:00,
2013-01-21 17:42:00,33.0,5.0,-100.00,West,268,29.0,44.0,30,0.00,,,-99.99,,2013-01-22 00:42:00,
2013-01-21 17:53:00,33.0,4.0,-100.00,West,267,28.0,41.0,28,0.00,,,-99.99,,2013-01-22 00:53:00,
2013-01-21 18:02:00,34.0,4.0,-100.00,West,271,31.0,45.0,28,0.00,,,-99.99,,2013-01-22 01:02:00,
2013-01-21 18:12:00,34.0,4.0,-100.00,West,265,32.0,45.0,28,0.00,,,-99.99,,2013-01-22 01:12:00,
2013-01-21 18:23:00,34.0,4.0,-100.00,WSW,254,38.0,50.0,28,0.00,,,-99.99,,2013-01-22 01:23:00,
2013-01-21 18:32:00,34.0,4.0,-100.00,WSW,257,34.0,47.0,28,0.00,,,-99.99,,2013-01-22 01:32:00,
2013-01-21 18:42:00,34.0,4.0,-100.00,West,260,34.0,45.0,28,0.00,,,-99.99,,2013-01-22 01:42:00,
2013-01-21 18:52:00,33.0,4.0,-100.00,West,261,29.0,44.0,29,0.00,,,-99.99,,2013-01-22 01:52:00,
2013-01-21 19:02:00,33.0,5.0,-100.00,WSW,258,27.0,44.0,30,0.00,,,-99.99,,2013-01-22 02:02:00,
2013-01-21 19:12:00,33.0,5.0,-100.00,WSW,258,28.0,44.0,30,0.00,,,-99.99,,2013-01-22 02:12:00,
2013-01-21 19:22:00,33.0,5.0,-100.00,WSW,253,33.0,45.0,30,0.00,,,-99.99,,2013-01-22 02:22:00,
2013-01-21 19:32:00,33.0,5.0,-100.00,WSW,254,31.0,43.0,30,0.00,,,-99.99,,2013-01-22 02:32:00,
2013-01-21 19:42:00,34.0,5.0,-100.00,WSW,256,30.0,42.0,29,0.00,,,-99.99,,2013-01-22 02:42:00,
2013-01-21 19:53:00,34.0,4.0,-100.00,WSW,250,34.0,46.0,28,0.00,,,-99.99,,2013-01-22 02:53:00,
2013-01-21 20:02:00,34.0,5.0,-100.00,WSW,247,35.0,46.0,29,0.00,,,-99.99,,2013-01-22 03:02:00,
2013-01-21 20:12:00,33.0,5.0,-100.00,WSW,250,32.0,45.0,30,0.00,,,-99.99,,2013-01-22 03:12:00,
2013-01-21 20:22:00,34.0,5.0,-100.00,WSW,253,32.0,44.0,29,0.00,,,-99.99,,2013-01-22 03:22:00,
2013-01-21 20:32:00,34.0,4.0,-100.00,WSW,254,30.0,45.0,28,0.00,,,-99.99,,2013-01-22 03:32:00,
2013-01-21 20:42:00,34.0,4.0,-100.00,WSW,256,31.0,45.0,28,0.00,,,-99.99,,2013-01-22 03:42:00,
2013-01-21 20:52:00,34.0,5.0,-100.00,WSW,248,31.0,41.0,28,0.00,,,-99.99,,2013-01-22 03:52:00,
2013-01-21 21:02:00,34.0,4.0,-100.00,WSW,244,32.0,45.0,28,0.00,,,-99.99,,2013-01-22 04:02:00,
2013-01-21 21:12:00,34.0,4.0,-100.00,WSW,243,32.0,45.0,27,0.00,,,-99.99,,2013-01-22 04:12:00,
2013-01-21 21:22:00,34.0,4.0,-100.00,WSW,244,34.0,45.0,27,0.00,,,-99.99,,2013-01-22 04:22:00,
2013-01-21 21:32:00,34.0,3.0,-100.00,WSW,248,32.0,43.0,26,0.00,,,-99.99,,2013-01-22 04:32:00,
2013-01-21 21:42:00,35.0,3.0,-100.00,WSW,247,32.0,47.0,26,0.00,,,-99.99,,2013-01-22 04:42:00,
2013-01-21 21:52:00,35.0,3.0,-100.00,WSW,246,34.0,50.0,26,0.00,,,-99.99,,2013-01-22 04:52:00,
2013-01-21 22:04:00,35.0,3.0,-100.00,WSW,258,32.0,45.0,26,0.00,,,-99.99,,2013-01-22 05:04:00,
2013-01-21 22:12:00,35.0,2.0,-100.00,WSW,257,33.0,43.0,24,0.00,,,-99.99,,2013-01-22 05:12:00,
2013-01-21 22:22:00,35.0,1.0,-100.00,West,263,28.0,43.0,24,0.00,,,-99.99,,2013-01-22 05:22:00,
2013-01-21 22:32:00,35.0,2.0,-100.00,West,267,28.0,40.0,24,0.00,,,-99.99,,2013-01-22 05:32:00,
2013-01-21 22:42:00,35.0,0.0,-100.00,West,278,26.0,40.0,22,0.00,,,-99.99,,2013-01-22 05:42:00,
2013-01-21 22:52:00,35.0,1.0,-100.00,West,270,24.0,37.0,24,0.00,,,-99.99,,2013-01-22 05:52:00,
2013-01-21 23:02:00,35.0,0.0,-100.00,West,267,28.0,37.0,22,0.00,,,-99.99,,2013-01-22 06:02:00,
2013-01-21 23:12:00,35.0,1.0,-100.00,West,265,26.0,36.0,24,0.00,,,-99.99,,2013-01-22 06:12:00,
2013-01-21 23:22:00,35.0,0.0,-100.00,West,270,24.0,34.0,23,0.00,,,-99.99,,2013-01-22 06:22:00,
2013-01-21 23:32:00,35.0,1.0,-100.00,West,263,29.0,41.0,22,0.00,,,-99.99,,2013-01-22 06:32:00,
2013-01-21 23:42:00,36.0,0.0,-100.00,WSW,253,35.0,50.0,21,0.00,,,-99.99,,2013-01-22 06:42:00,
2013-01-21 23:52:00,36.0,-1.0,-100.00,WSW,248,36.0,49.0,21,0.00,,,-99.99,,2013-01-22 06:52:00,